Date String (YYYY-MM-DD hh:mm:ss) UTC,Instrument flags,Ambient pressure (hPa),Sample flow (lpm),Bypass flow (lpm),Sample temperature (°C),Ambient temperature (°C),ASC tube jacket temperature (°C),LED temperature (°C),Box temperature (°C),Sample RH (%),Span deviation,Mass concentration (μg/m³),Mass concentration (μg/m³),Mass concentration (μg/m³)
DateTimeUTC,F1_M11,P_M11,Q1_M11,Q2_M11,T1_M11,T2_M11,T3_M11,T4_M11,T5_M11,U1_M11,ZSPAN_M11,X0_M11,X2_M11,X1_M11
2022-11-11 11:00:00,,0827.9,5.00,0.00,22.9,22.4,00.0,31.6,24.9,08.6,0000.0,0008.80,0003.49,0003.19
2022-11-11 11:01:00,,0827.9,5.00,0.00,22.9,22.1,00.0,31.6,24.8,08.6,0000.0,0009.48,0003.51,0003.20
2022-11-11 11:02:00,,0827.9,5.02,0.00,22.9,21.9,00.0,31.6,24.8,08.6,0000.0,0009.62,0003.51,0003.21
2022-11-11 11:03:00,,0827.9,4.98,0.00,22.9,21.7,00.0,31.6,24.7,08.6,0000.0,0009.00,0003.50,0003.21
2022-11-11 11:04:00,,0827.9,5.01,0.00,22.8,21.5,00.0,31.6,24.7,08.7,0000.0,0008.73,0003.49,0003.21
2022-11-11 11:05:00,,0827.9,4.99,0.00,22.8,21.5,00.0,31.6,24.6,08.7,0000.0,0008.89,0003.53,0003.22
2022-11-11 11:06:00,,0827.9,5.01,0.00,22.8,21.4,00.0,31.6,24.6,08.8,0000.0,0008.96,0003.58,0003.23
2022-11-11 11:07:00,,0827.8,5.00,0.00,22.8,21.4,00.0,31.6,24.6,08.8,0000.0,0008.78,0003.60,0003.23
2022-11-11 11:08:00,,0827.7,5.00,0.00,22.8,21.3,00.0,31.6,24.5,08.8,0000.0,0008.49,0003.59,0003.23
2022-11-11 11:09:00,,0827.8,4.98,0.00,22.7,21.3,00.0,31.6,24.5,08.9,0000.0,0008.36,0003.61,0003.24
2022-11-11 11:10:00,,0827.8,5.02,0.00,22.7,21.2,00.0,31.6,24.5,09.0,0000.0,0007.82,0003.59,0003.23
2022-11-11 11:11:00,,0827.9,4.99,0.00,22.7,21.2,00.0,31.6,24.4,09.0,0000.0,0008.05,0003.60,0003.22
2022-11-11 11:12:00,,0827.9,5.01,0.00,22.7,21.3,00.0,31.6,24.5,08.9,0000.0,0007.64,0003.58,0003.20
2022-11-11 11:13:00,,0827.9,5.00,0.00,22.7,22.0,00.0,31.5,24.6,08.9,0000.0,0007.53,0003.59,0003.20
2022-11-11 11:14:00,,0827.9,5.00,0.00,22.8,22.8,00.0,31.5,24.9,08.9,0000.0,0007.60,0003.61,0003.19
2022-11-11 11:15:00,,0827.8,5.01,0.00,22.9,22.6,00.0,31.6,24.9,08.8,0000.0,0007.66,0003.61,0003.19
2022-11-11 11:16:00,,0827.7,4.99,0.00,22.9,22.3,00.0,31.6,24.8,08.8,0000.0,0007.26,0003.59,0003.18
2022-11-11 11:17:00,,0827.7,5.00,0.00,22.9,22.1,00.0,31.6,24.8,08.8,0000.0,0007.60,0003.53,0003.16
2022-11-11 11:18:00,,0827.7,5.00,0.00,22.9,21.8,00.0,31.6,24.7,08.7,0000.0,0007.56,0003.51,0003.16
2022-11-11 11:19:00,,0827.7,5.01,0.00,22.9,21.7,00.0,31.6,24.7,08.8,0000.0,0007.57,0003.50,0003.15
2022-11-11 11:20:00,,0827.7,5.00,0.00,22.8,21.6,00.0,31.6,24.7,08.8,0000.0,0008.18,0003.48,0003.13
2022-11-11 11:21:00,,0827.7,5.01,0.00,22.8,21.6,00.0,31.6,24.6,08.8,0000.0,0008.16,0003.45,0003.12
2022-11-11 11:22:00,,0827.7,4.99,0.00,22.8,21.5,00.0,31.6,24.6,08.8,0000.0,0008.00,0003.44,0003.10
2022-11-11 11:23:00,,0827.7,4.99,0.00,22.8,21.5,00.0,31.7,24.6,08.7,0000.0,0007.78,0003.43,0003.08
2022-11-11 11:24:00,,0827.7,5.02,0.00,22.8,21.4,00.0,31.7,24.6,08.7,0000.0,0007.82,0003.41,0003.06
2022-11-11 11:25:00,,0827.7,5.00,0.00,22.8,21.4,00.0,31.7,24.6,08.7,0000.0,0007.79,0003.39,0003.06
2022-11-11 11:26:00,,0827.7,4.98,0.00,22.8,21.4,00.0,31.7,24.5,08.7,0000.0,0007.81,0003.39,0003.05
2022-11-11 11:27:00,,0827.7,5.02,0.00,22.7,21.3,00.0,31.7,24.5,08.7,0000.0,0007.84,0003.37,0003.02
2022-11-11 11:28:00,,0827.7,4.98,0.00,22.7,21.3,00.0,31.6,24.5,08.7,0000.0,0007.78,0003.37,0003.02
2022-11-11 11:29:00,,0827.7,5.01,0.00,22.7,21.3,00.0,31.6,24.5,08.7,0000.0,0008.44,0003.36,0003.01
2022-11-11 11:30:00,,0827.7,5.00,0.00,22.7,21.6,00.0,31.6,24.6,08.7,0000.0,0008.47,0003.35,0003.00
2022-11-11 11:31:00,,0827.7,5.00,0.00,22.8,22.3,00.0,31.6,24.8,08.7,0000.0,0007.93,0003.37,0003.01
2022-11-11 11:32:00,,0827.8,5.00,0.00,22.9,22.7,00.0,31.6,24.9,08.7,0000.0,0008.00,0003.42,0003.03
2022-11-11 11:33:00,,0827.7,4.99,0.00,22.9,22.4,00.0,31.6,24.9,08.7,0000.0,0007.97,0003.41,0003.04
2022-11-11 11:34:00,,0827.7,4.99,0.00,22.9,22.1,00.0,31.6,24.8,08.7,0000.0,0007.85,0003.41,0003.05
2022-11-11 11:35:00,,0827.7,5.02,0.00,22.9,21.9,00.0,31.6,24.8,08.7,0000.0,0007.76,0003.40,0003.06
2022-11-11 11:36:00,,0827.7,4.99,0.00,22.9,21.7,00.0,31.6,24.7,08.7,0000.0,0007.79,0003.43,0003.08
2022-11-11 11:37:00,,0827.7,4.99,0.00,22.9,21.6,00.0,31.6,24.7,08.8,0000.0,0007.78,0003.43,0003.09
2022-11-11 11:38:00,,0827.7,5.02,0.00,22.8,21.6,00.0,31.7,24.7,08.8,0000.0,0007.38,0003.44,0003.12
2022-11-11 11:39:00,,0827.7,4.99,0.00,22.8,21.5,00.0,31.7,24.6,08.8,0000.0,0007.08,0003.47,0003.14
2022-11-11 11:40:00,,0827.7,5.01,0.00,22.8,21.5,00.0,31.7,24.6,08.9,0000.0,0005.94,0003.48,0003.14
2022-11-11 11:41:00,,0827.7,4.99,0.00,22.8,21.3,00.0,31.6,24.6,08.9,0000.0,0007.09,0003.51,0003.15
2022-11-11 11:42:00,,0827.7,5.00,0.00,22.8,21.3,00.0,31.6,24.6,08.9,0000.0,0008.04,0003.53,0003.16
2022-11-11 11:43:00,,0827.7,5.01,0.00,22.8,21.3,00.0,31.6,24.5,08.9,0000.0,0008.06,0003.53,0003.16
2022-11-11 11:44:00,,0827.7,5.00,0.00,22.7,21.3,00.0,31.6,24.5,08.9,0000.0,0008.14,0003.53,0003.17
2022-11-11 11:45:00,,0827.7,4.99,0.00,22.7,21.2,00.0,31.6,24.5,08.9,0000.0,0008.42,0003.55,0003.18
2022-11-11 11:46:00,,0827.7,4.99,0.00,22.7,21.2,00.0,31.6,24.4,08.9,0000.0,0008.59,0003.57,0003.20
2022-11-11 11:47:00,,0827.7,5.00,0.00,22.7,21.2,00.0,31.6,24.4,08.9,0000.0,0008.53,0003.56,0003.20
2022-11-11 11:48:00,,0827.8,5.01,0.00,22.7,21.8,00.0,31.5,24.6,08.9,0000.0,0008.55,0003.57,0003.20
2022-11-11 11:49:00,,0827.7,5.00,0.00,22.8,22.5,00.0,31.5,24.8,08.9,0000.0,0008.72,0003.58,0003.20
2022-11-11 11:50:00,,0827.7,4.99,0.00,22.9,22.6,00.0,31.6,24.9,08.8,0000.0,0008.75,0003.58,0003.21
2022-11-11 11:51:00,,0827.7,5.00,0.00,22.9,22.3,00.0,31.6,24.8,08.8,0000.0,0008.65,0003.61,0003.22
2022-11-11 11:52:00,,0827.7,5.00,0.00,22.9,22.0,00.0,31.6,24.8,08.7,0000.0,0008.44,0003.63,0003.22
2022-11-11 11:53:00,,0827.7,5.00,0.00,22.9,21.8,00.0,31.6,24.7,08.6,0000.0,0007.83,0003.59,0003.21
2022-11-11 11:54:00,,0827.7,4.99,0.00,22.8,21.7,00.0,31.6,24.7,08.6,0000.0,0007.74,0003.58,0003.20
2022-11-11 11:55:00,,0827.7,5.00,0.00,22.8,21.6,00.0,31.6,24.7,08.6,0000.0,0007.90,0003.56,0003.19
2022-11-11 11:56:00,,0827.7,5.00,0.00,22.8,21.6,00.0,31.6,24.6,08.6,0000.0,0007.71,0003.54,0003.19
2022-11-11 11:57:00,,0827.7,5.01,0.00,22.8,21.5,00.0,31.6,24.6,08.7,0000.0,0007.54,0003.54,0003.18
2022-11-11 11:58:00,,0827.7,4.99,0.00,22.8,21.5,00.0,31.6,24.6,08.7,0000.0,0007.67,0003.53,0003.18
2022-11-11 11:59:00,,0827.7,5.00,0.00,22.8,21.4,00.0,31.6,24.6,08.7,0000.0,0008.32,0003.55,0003.18
